Location: Brest
(52.1000°N, 23.7000°E)
Time: 14:57:44
(UTC+02:00)

Genesis I - Visible Passes

Search period start: 18 December 2017 00:00
Search period end: 28 December 2017 00:00
Orbit: 491 x 538 km, 64.5° (Epoch: 17 December)

Date Brightness Start Highest point End Pass type
(mag) Time Alt. Az. Time Alt. Az. Time Alt. Az.
18 Dec 6.4 04:32:31 11° NE 04:32:31 11° NE 04:32:45 10° NE visible
18 Dec 4.4 06:07:29 28° N 06:08:51 37° NE 06:12:39 10° ESE visible
18 Dec 4.0 07:42:46 10° NW 07:46:35 41° SW 07:50:23 10° SSE visible
19 Dec 4.3 05:51:59 35° N 05:52:43 38° NE 05:56:31 10° ESE visible
19 Dec 3.9 07:26:57 12° NW 07:30:26 40° SW 07:34:14 10° SSE visible
20 Dec 4.4 05:36:32 38° NE 05:36:34 38° NE 05:40:23 10° ESE visible
20 Dec 3.9 07:11:29 16° WNW 07:14:17 40° WSW 07:18:04 10° SSE visible
21 Dec 4.7 05:21:07 35° ENE 05:21:07 35° ENE 05:24:15 10° ESE visible
21 Dec 3.9 06:56:05 22° WNW 06:58:08 39° WSW 07:01:55 10° SSE visible
22 Dec 5.2 05:05:46 28° E 05:05:46 28° E 05:08:06 10° ESE visible
22 Dec 3.9 06:40:44 30° W 06:41:59 39° WSW 06:45:45 10° SSE visible
23 Dec 5.8 04:50:29 20° E 04:50:29 20° E 04:51:58 10° ESE visible
23 Dec 3.8 06:25:28 37° WSW 06:25:50 38° WSW 06:29:35 10° SSE visible
24 Dec 6.3 04:35:15 13° ESE 04:35:15 13° ESE 04:35:49 10° ESE visible
24 Dec 4.1 06:10:15 36° SW 06:10:15 36° SW 06:13:25 10° SSE visible
25 Dec 4.8 05:55:07 26° S 05:55:07 26° S 05:57:15 10° S visible
26 Dec 5.5 05:40:05 16° S 05:40:05 16° S 05:41:05 10° S visible
